Time,TemperatureF,DewpointF,PressureIn,WindDirection,WindDirectionDegrees,WindSpeedMPH,WindSpeedGustMPH,Humidity,HourlyPrecipIn,Conditions,Clouds,dailyrainin,SoftwareType,DateUTC
2013-12-11 00:08:00,29.1,11.0,31.26,WNW,284,0.0,-999.0,47,-99.99,,,0.00,weatherlink.com 1.10,2013-12-11 06:08:00,
2013-12-11 00:23:00,29.2,10.0,31.27,WNW,284,0.0,-999.0,45,-99.99,,,0.00,weatherlink.com 1.10,2013-12-11 06:23:00,
2013-12-11 00:38:00,29.3,9.0,31.27,WNW,284,0.0,-999.0,43,-99.99,,,0.00,weatherlink.com 1.10,2013-12-11 06:38:00,
2013-12-11 00:53:00,29.3,10.0,31.25,WNW,284,0.0,-999.0,44,-99.99,,,0.00,weatherlink.com 1.10,2013-12-11 06:53:00,
2013-12-11 01:08:00,29.1,10.0,31.25,WNW,284,0.0,-999.0,44,-99.99,,,0.00,weatherlink.com 1.10,2013-12-11 07:08:00,
2013-12-11 01:23:00,29.2,9.0,31.25,WNW,284,0.0,-999.0,43,-99.99,,,0.00,weatherlink.com 1.10,2013-12-11 07:23:00,
2013-12-11 01:38:00,29.2,9.0,31.25,WNW,284,0.0,-999.0,42,-99.99,,,0.00,weatherlink.com 1.10,2013-12-11 07:38:00,
2013-12-11 01:53:00,29.2,8.0,31.25,WNW,284,0.0,-999.0,41,-99.99,,,0.00,weatherlink.com 1.10,2013-12-11 07:53:00,
2013-12-11 02:08:00,29.3,8.0,31.24,WNW,284,0.0,-999.0,40,-99.99,,,0.00,weatherlink.com 1.10,2013-12-11 08:08:00,
2013-12-11 02:23:00,29.7,6.0,31.24,WNW,284,0.0,-999.0,37,-99.99,,,0.00,weatherlink.com 1.10,2013-12-11 08:23:00,
2013-12-11 02:39:00,29.9,7.0,31.23,WNW,284,0.0,-999.0,38,-99.99,,,0.00,weatherlink.com 1.10,2013-12-11 08:39:00,
2013-12-11 02:54:00,30.2,7.0,31.23,WNW,284,0.0,-999.0,37,-99.99,,,0.00,weatherlink.com 1.10,2013-12-11 08:54:00,
2013-12-11 03:09:00,31.0,7.0,31.23,WNW,284,0.0,-999.0,36,-99.99,,,0.00,weatherlink.com 1.10,2013-12-11 09:09:00,
2013-12-11 03:24:00,31.2,10.0,31.24,WNW,284,0.0,-999.0,41,-99.99,,,0.00,weatherlink.com 1.10,2013-12-11 09:24:00,
2013-12-11 03:39:00,30.6,10.0,31.24,WNW,284,0.0,-999.0,42,-99.99,,,0.00,weatherlink.com 1.10,2013-12-11 09:39:00,
2013-12-11 03:54:00,30.8,9.0,31.23,WNW,284,0.0,-999.0,40,-99.99,,,0.00,weatherlink.com 1.10,2013-12-11 09:54:00,
2013-12-11 04:09:00,31.5,9.0,31.24,WNW,284,0.0,-999.0,39,-99.99,,,0.00,weatherlink.com 1.10,2013-12-11 10:09:00,
2013-12-11 04:24:00,32.1,9.0,31.23,WNW,284,0.0,-999.0,38,-99.99,,,0.00,weatherlink.com 1.10,2013-12-11 10:24:00,
2013-12-11 04:39:00,32.7,10.0,31.23,WNW,284,0.0,-999.0,38,-99.99,,,0.00,weatherlink.com 1.10,2013-12-11 10:39:00,
2013-12-11 04:54:00,33.1,10.0,31.23,WNW,284,0.0,-999.0,39,-99.99,,,0.00,weatherlink.com 1.10,2013-12-11 10:54:00,
2013-12-11 05:09:00,33.5,10.0,31.23,WNW,284,0.0,-999.0,38,-99.99,,,0.00,weatherlink.com 1.10,2013-12-11 11:09:00,
2013-12-11 05:24:00,33.8,11.0,31.23,WNW,284,0.0,-999.0,38,-99.99,,,0.00,weatherlink.com 1.10,2013-12-11 11:24:00,
2013-12-11 05:39:00,34.1,11.0,31.23,WNW,284,0.0,-999.0,38,-99.99,,,0.00,weatherlink.com 1.10,2013-12-11 11:39:00,
2013-12-11 05:54:00,34.7,11.0,31.23,WNW,284,0.0,-999.0,37,-99.99,,,0.00,weatherlink.com 1.10,2013-12-11 11:54:00,
2013-12-11 06:09:00,35.6,12.0,31.23,WNW,284,0.0,-999.0,38,-99.99,,,0.00,weatherlink.com 1.10,2013-12-11 12:09:00,
2013-12-11 06:24:00,36.3,13.0,31.24,NW,306,0.0,-999.0,39,-99.99,,,0.00,weatherlink.com 1.10,2013-12-11 12:24:00,
2013-12-11 06:54:00,37.0,16.0,31.25,NW,306,0.0,-999.0,43,-99.99,,,0.00,weatherlink.com 1.10,2013-12-11 12:54:00,
2013-12-11 07:09:00,37.3,17.0,31.25,NW,306,0.0,-999.0,43,-99.99,,,0.00,weatherlink.com 1.10,2013-12-11 13:09:00,
2013-12-11 07:24:00,37.5,18.0,31.26,NW,306,0.0,-999.0,45,-99.99,,,0.00,weatherlink.com 1.10,2013-12-11 13:24:00,
2013-12-11 07:39:00,37.4,17.0,31.27,NW,306,1.0,-999.0,43,-99.99,,,0.00,weatherlink.com 1.10,2013-12-11 13:39:00,
2013-12-11 07:54:00,37.1,17.0,31.27,NW,306,0.0,-999.0,44,-99.99,,,0.00,weatherlink.com 1.10,2013-12-11 13:54:00,
2013-12-11 08:09:00,37.5,16.0,31.28,NW,306,0.0,-999.0,41,-99.99,,,0.00,weatherlink.com 1.10,2013-12-11 14:09:00,
2013-12-11 08:24:00,38.2,15.0,31.28,NW,306,0.0,-999.0,39,-99.99,,,0.00,weatherlink.com 1.10,2013-12-11 14:24:00,
2013-12-11 08:39:00,38.9,16.0,31.29,NW,306,0.0,-999.0,39,-99.99,,,0.00,weatherlink.com 1.10,2013-12-11 14:39:00,
2013-12-11 08:54:00,39.8,19.0,31.29,ENE,65,2.0,-999.0,44,-99.99,,,0.00,weatherlink.com 1.10,2013-12-11 14:54:00,
2013-12-11 09:09:00,40.4,23.0,31.29,ENE,76,1.0,-999.0,51,-99.99,,,0.00,weatherlink.com 1.10,2013-12-11 15:09:00,
2013-12-11 09:24:00,41.1,25.0,31.29,ENE,75,0.0,-999.0,54,-99.99,,,0.00,weatherlink.com 1.10,2013-12-11 15:24:00,
2013-12-11 09:39:00,41.8,29.0,31.30,ENE,76,0.0,-999.0,61,-99.99,,,0.00,weatherlink.com 1.10,2013-12-11 15:39:00,
2013-12-11 09:54:00,42.5,31.0,31.30,ESE,106,0.0,-999.0,63,-99.99,,,0.00,weatherlink.com 1.10,2013-12-11 15:54:00,
2013-12-11 10:09:00,43.4,33.0,31.29,East,95,2.0,-999.0,67,-99.99,,,0.00,weatherlink.com 1.10,2013-12-11 16:09:00,
2013-12-11 10:24:00,44.7,35.0,31.29,South,172,2.0,-999.0,69,-99.99,,,0.00,weatherlink.com 1.10,2013-12-11 16:24:00,
2013-12-11 10:40:00,45.5,37.0,31.30,SE,142,0.0,-999.0,71,-99.99,,,0.00,weatherlink.com 1.10,2013-12-11 16:40:00,
2013-12-11 10:54:00,46.4,37.0,31.30,SE,139,0.0,-999.0,71,-99.99,,,0.00,weatherlink.com 1.10,2013-12-11 16:54:00,
2013-12-11 11:10:00,47.4,38.0,31.30,South,190,0.0,-999.0,71,-99.99,,,0.00,weatherlink.com 1.10,2013-12-11 17:10:00,
2013-12-11 11:25:00,47.8,38.0,31.29,WSW,246,0.0,-999.0,70,-99.99,,,0.00,weatherlink.com 1.10,2013-12-11 17:25:00,
2013-12-11 11:40:00,49.0,39.0,31.29,SSW,211,2.0,-999.0,69,-99.99,,,0.00,weatherlink.com 1.10,2013-12-11 17:40:00,
2013-12-11 11:54:00,49.6,38.0,31.28,NW,319,3.0,-999.0,65,-99.99,,,0.00,weatherlink.com 1.10,2013-12-11 17:54:00,
2013-12-11 12:09:00,49.7,39.0,31.28,NW,311,1.0,-999.0,66,-99.99,,,0.00,weatherlink.com 1.10,2013-12-11 18:09:00,
2013-12-11 12:24:00,49.9,38.0,31.27,WNW,292,3.0,-999.0,65,-99.99,,,0.00,weatherlink.com 1.10,2013-12-11 18:24:00,
2013-12-11 12:39:00,49.4,38.0,31.27,NW,320,4.0,-999.0,65,-99.99,,,0.00,weatherlink.com 1.10,2013-12-11 18:39:00,
2013-12-11 12:55:00,49.1,36.0,31.27,WNW,288,4.0,-999.0,62,-99.99,,,0.00,weatherlink.com 1.10,2013-12-11 18:55:00,
2013-12-11 13:10:00,49.0,37.0,31.26,WNW,300,3.0,-999.0,64,-99.99,,,0.00,weatherlink.com 1.10,2013-12-11 19:10:00,
2013-12-11 13:25:00,48.7,37.0,31.27,WNW,301,3.0,-999.0,65,-99.99,,,0.00,weatherlink.com 1.10,2013-12-11 19:25:00,
2013-12-11 13:40:00,48.7,38.0,31.27,SW,218,0.0,-999.0,66,-99.99,,,0.00,weatherlink.com 1.10,2013-12-11 19:40:00,
2013-12-11 13:54:00,48.5,38.0,31.26,NW,304,4.0,-999.0,67,-99.99,,,0.00,weatherlink.com 1.10,2013-12-11 19:54:00,
2013-12-11 14:09:00,48.6,38.0,31.26,NW,305,3.0,-999.0,67,-99.99,,,0.00,weatherlink.com 1.10,2013-12-11 20:09:00,
2013-12-11 14:24:00,48.7,38.0,31.25,WNW,303,4.0,-999.0,67,-99.99,,,0.00,weatherlink.com 1.10,2013-12-11 20:24:00,
2013-12-11 14:39:00,48.9,38.0,31.25,NW,323,7.0,-999.0,67,-99.99,,,0.00,weatherlink.com 1.10,2013-12-11 20:39:00,
2013-12-11 14:54:00,49.4,39.0,31.25,WNW,301,3.0,-999.0,67,-99.99,,,0.00,weatherlink.com 1.10,2013-12-11 20:54:00,
2013-12-11 15:09:00,49.5,38.0,31.25,NW,308,2.0,-999.0,66,-99.99,,,0.00,weatherlink.com 1.10,2013-12-11 21:09:00,
2013-12-11 15:24:00,49.7,38.0,31.25,WNW,302,4.0,-999.0,65,-99.99,,,0.00,weatherlink.com 1.10,2013-12-11 21:24:00,
2013-12-11 15:39:00,50.0,39.0,31.25,NW,310,2.0,-999.0,66,-99.99,,,0.00,weatherlink.com 1.10,2013-12-11 21:39:00,
2013-12-11 15:55:00,50.1,39.0,31.27,WNW,288,3.0,-999.0,65,-99.99,,,0.00,weatherlink.com 1.10,2013-12-11 21:55:00,
2013-12-11 16:10:00,50.3,38.0,31.27,WNW,300,1.0,-999.0,64,-99.99,,,0.00,weatherlink.com 1.10,2013-12-11 22:10:00,
2013-12-11 16:25:00,50.4,39.0,31.27,NW,315,2.0,-999.0,64,-99.99,,,0.00,weatherlink.com 1.10,2013-12-11 22:25:00,
2013-12-11 16:40:00,50.5,38.0,31.28,WNW,302,2.0,-999.0,63,-99.99,,,0.00,weatherlink.com 1.10,2013-12-11 22:40:00,
2013-12-11 16:54:00,50.5,39.0,31.27,NW,306,2.0,-999.0,64,-99.99,,,0.00,weatherlink.com 1.10,2013-12-11 22:54:00,
2013-12-11 17:09:00,50.3,38.0,31.28,NW,306,2.0,-999.0,64,-99.99,,,0.00,weatherlink.com 1.10,2013-12-11 23:09:00,
2013-12-11 17:24:00,50.0,39.0,31.29,NW,306,0.0,-999.0,65,-99.99,,,0.00,weatherlink.com 1.10,2013-12-11 23:24:00,
2013-12-11 17:39:00,49.5,39.0,31.29,NW,306,0.0,-999.0,67,-99.99,,,0.00,weatherlink.com 1.10,2013-12-11 23:39:00,
2013-12-11 17:54:00,48.3,38.0,31.30,NW,306,0.0,-999.0,68,-99.99,,,0.00,weatherlink.com 1.10,2013-12-11 23:54:00,
2013-12-11 18:09:00,46.4,37.0,31.30,NW,306,0.0,-999.0,71,-99.99,,,0.00,weatherlink.com 1.10,2013-12-12 00:09:00,
2013-12-11 18:24:00,44.9,36.0,31.31,NW,306,0.0,-999.0,70,-99.99,,,0.00,weatherlink.com 1.10,2013-12-12 00:24:00,
2013-12-11 18:39:00,43.9,35.0,31.32,NW,306,0.0,-999.0,70,-99.99,,,0.00,weatherlink.com 1.10,2013-12-12 00:39:00,
2013-12-11 18:54:00,43.0,33.0,31.32,NW,306,0.0,-999.0,69,-99.99,,,0.00,weatherlink.com 1.10,2013-12-12 00:54:00,
2013-12-11 19:09:00,41.9,32.0,31.32,NW,306,0.0,-999.0,67,-99.99,,,0.00,weatherlink.com 1.10,2013-12-12 01:09:00,
2013-12-11 19:24:00,41.2,29.0,31.33,NW,306,0.0,-999.0,62,-99.99,,,0.00,weatherlink.com 1.10,2013-12-12 01:24:00,
2013-12-11 19:39:00,40.5,28.0,31.34,NW,306,0.0,-999.0,61,-99.99,,,0.00,weatherlink.com 1.10,2013-12-12 01:39:00,
2013-12-11 19:54:00,40.2,27.0,31.34,NW,306,0.0,-999.0,59,-99.99,,,0.00,weatherlink.com 1.10,2013-12-12 01:54:00,
2013-12-11 20:09:00,40.1,24.0,31.36,NW,306,0.0,-999.0,54,-99.99,,,0.00,weatherlink.com 1.10,2013-12-12 02:09:00,
2013-12-11 20:24:00,39.7,25.0,31.36,NW,306,0.0,-999.0,55,-99.99,,,0.00,weatherlink.com 1.10,2013-12-12 02:24:00,
2013-12-11 20:39:00,39.2,24.0,31.37,NW,306,0.0,-999.0,54,-99.99,,,0.00,weatherlink.com 1.10,2013-12-12 02:39:00,
2013-12-11 20:55:00,38.8,22.0,31.37,NW,306,0.0,-999.0,52,-99.99,,,0.00,weatherlink.com 1.10,2013-12-12 02:55:00,
2013-12-11 21:10:00,38.9,22.0,31.37,NW,306,0.0,-999.0,50,-99.99,,,0.00,weatherlink.com 1.10,2013-12-12 03:10:00,
2013-12-11 21:25:00,39.3,25.0,31.39,NW,306,0.0,-999.0,56,-99.99,,,0.00,weatherlink.com 1.10,2013-12-12 03:25:00,
2013-12-11 21:40:00,38.3,23.0,31.39,NW,306,0.0,-999.0,54,-99.99,,,0.00,weatherlink.com 1.10,2013-12-12 03:40:00,
2013-12-11 21:55:00,38.2,21.0,31.39,NW,306,1.0,-999.0,51,-99.99,,,0.00,weatherlink.com 1.10,2013-12-12 03:55:00,
2013-12-11 22:10:00,38.8,25.0,31.39,NW,306,0.0,-999.0,57,-99.99,,,0.00,weatherlink.com 1.10,2013-12-12 04:10:00,
2013-12-11 22:25:00,39.3,28.0,31.41,NW,306,0.0,-999.0,64,-99.99,,,0.00,weatherlink.com 1.10,2013-12-12 04:25:00,
2013-12-11 22:40:00,38.9,28.0,31.40,NW,306,0.0,-999.0,65,-99.99,,,0.00,weatherlink.com 1.10,2013-12-12 04:40:00,
2013-12-11 22:54:00,38.1,27.0,31.40,NW,306,0.0,-999.0,65,-99.99,,,0.00,weatherlink.com 1.10,2013-12-12 04:54:00,
2013-12-11 23:09:00,37.6,25.0,31.41,NW,306,0.0,-999.0,60,-99.99,,,0.00,weatherlink.com 1.10,2013-12-12 05:09:00,
2013-12-11 23:24:00,37.2,25.0,31.41,NW,306,0.0,-999.0,61,-99.99,,,0.00,weatherlink.com 1.10,2013-12-12 05:24:00,
2013-12-11 23:39:00,36.5,23.0,31.41,NW,306,0.0,-999.0,59,-99.99,,,0.00,weatherlink.com 1.10,2013-12-12 05:39:00,
2013-12-11 23:54:00,36.4,22.0,31.41,NW,306,0.0,-999.0,57,-99.99,,,0.00,weatherlink.com 1.10,2013-12-12 05:54:00,